STARLINK AU

Last updated on Sat Jul 15 2023 00:02:05 GMT+0000 (Coordinated Universal Time)

1 57260U 23094AU 23195.75001157 -.01067412 34020-3 -30224-2 0 9992 2 57260 42.9947 276.0403 0024922 199.6634 245.1319 15.91926568 1307

Satellite not in orbit